Flag for Switzerland Weather past 2 weeks in Binningen, Basel-Land, Switzerland

Now
54 °F

Overcast.


Feels Like: 54 °F
Forecast: 47 / 63 °F
Wind: 2 mph from Northwest

Location: Bale-Mulhouse

Current Time: Sep 5, 2015 at 6:50:17 AM

Latest Report: Sep 5, 2015 at 3:00 AM


Visibility: 37 mi

Pressure: 30.04 "Hg

Humidity: 71%

Dew point: 45 °F

Location of BinningenLocation

Historic Weather in Binningen — Graph

°F

Binningen temperature yesterday

Maximum temperature yesterday: 71 °F (at 5:00 PM)
Minimum temperature yesterday: 46 °F (at 6:00 AM)
Average temperature yesterday: 60 °F

Past Weeks' High & Low Weather Summary

 TemperatureHumidityPressure
High93 °F (Aug 30, 4:00 PM)99% (Sep 2, 7:00 AM)30.26 "Hg (Sep 2, 7:00 AM)
Low46 °F (Sep 4, 6:00 AM)23% (Aug 31, 2:00 PM)29.68 "Hg (Aug 24, 1:00 PM)
Average68 °F67%29.99 "Hg
* Reported Aug 21 3:00 AM — Sep 5 3:00 AM, Binningen, Weather by CustomWeather, © 2015

Note: Actual official high and low records may vary slightly from our data, if they occured in-between our weather recording intervals... More about our weather records

Advertising

Binningen weather history for previous 24 hours

 ConditionsComfort  
Time TempWeatherWind HumidityBarometerVisibility
3:00 AM
Sat, Sep 5
54 °FOvercast.2 mph71%30.04 "Hg37 mi
2:00 AM55 °FOvercast.7 mph69%30.04 "Hg37 mi
11:00 PM
Fri, Sep 4
58 °FPassing clouds.6 mph60%30.02 "Hg25 mi
8:00 PM65 °FPartly sunny.7 mph46%29.96 "Hg25 mi
7:00 PM68 °FScattered clouds.10 mph38%29.96 "Hg25 mi
6:00 PM68 °FScattered clouds.8 mph37%29.95 "Hg25 mi
5:00 PM71 °FPassing clouds.7 mph35%29.96 "Hg25 mi
4:00 PM69 °FScattered clouds.9 mph38%29.97 "Hg25 mi
3:00 PM68 °FScattered clouds.9 mph39%29.98 "Hg25 mi
2:00 PM68 °FPassing clouds.9 mph41%30.00 "Hg25 mi
1:00 PM69 °FPassing clouds.9 mph40%30.01 "Hg25 mi
12:00 PM69 °FPassing clouds.5 mph42%30.02 "Hg25 mi
11:00 AM65 °FPassing clouds.6 mph46%30.03 "Hg25 mi
10:00 AM62 °FPassing clouds.3 mph59%30.04 "Hg25 mi
9:00 AM58 °FPassing clouds.2 mph73%30.04 "Hg25 mi
8:00 AM50 °FPassing clouds.No wind93%30.05 "Hg25 mi
7:00 AM46 °FPassing clouds.2 mph91%30.05 "Hg25 mi
6:00 AM46 °FPassing clouds.1 mph91%30.04 "Hg25 mi
Weather by CustomWeather, © 2015

See weather overviewHow to use our weather pages